Tracking 19634 objects as of 23-May-2019
HD Live streaming from Space Station
objects crossing your sky now

SL-3 R/B

Track SL-3 R/B now!
10-day predictions
SL-3 R/B is classified as:


NORAD ID: 13068
Int'l Code: 1982-013B
Perigee: 535.9 km
Apogee: 567.4 km
Inclination: 81.2 °
Period: 95.5 minutes
Semi major axis: 6922 km
RCS: 5.3655 m2 (large)
Launch date: February 19, 1982
Source: Commonwealth of Independent States (former USSR) (CIS)
Launch site: PLESETSK MISSILE AND SPACE COMPLEX (PKMTR)

Note: This is a ROCKET BODY
aabbcc
Your satellite tracking list
Your tracking list is empty




NASA's NSSDC Master Catalog

Two Line Element Set (TLE):
1 13068U 82013B   19142.84240539 -.00000103  00000-0 -83905-5 0  9990
2 13068  81.2000 137.7790 0022739 145.4950 214.7755 15.07288635 29632
Source of the keplerian elements: AFSPC